Regional Weather Roundup
Issued by NWS Green Bay, WI

Home | Current Version | Previous Version | Graphics & Text | Print | Product List | Glossary Off
Versions: 1 2 3 4 5 6 7 8 9 10 11 12 13 14 15 16 17 18 19 20 21 22 23 24 25 26 27 28 29 30 31 32 33 34 35 36 37 38 39 40 41 42 43 44 45 46 47 48 49 50

000
ASUS43 KGRB 291111
RWRGRB

NORTH-CENTRAL AND NORTHEAST WISCONSIN REGIONAL WEATHER ROUNDUP
NATIONAL WEATHER SERVICE GREEN BAY WI
600 AM CDT FRI JUL 29 2016

WIZ005-009-010>012-018-019-291200-
NORTH CENTRAL WISCONSIN

CITY           SKY/WX    TMP DP  RH WIND       PRES   REMARKS
IRONWOOD       CLEAR     43  41  93 CALM      30.10S
MANITOWISH WTR CLEAR     46  46 100 CALM      30.11R
ARBOR VITAE    CLEAR     47  46  95 N3        30.10S
EAGLE RIVER    PTCLDY    44  44 100 CALM      30.10S
LAND O LAKES   CLEAR     44  43  99 CALM      30.11S FOG
RHINELANDER    CLEAR     50  48  93 N3        30.09S
PHILLIPS       CLEAR     49  49 100 CALM      30.09S
ANTIGO         MOCLDY    55  52  91 NE10      30.06S
TOMAHAWK       CLEAR     47  46  97 CALM      30.08F
MERRILL        CLEAR     51  51  97 N5        30.07S
$$

WIZ013-073-291200-
NORTHEAST WISCONSIN

CITY           SKY/WX    TMP DP  RH WIND       PRES   REMARKS
IRON MOUNTAIN  CLEAR     51  47  86 CALM      30.06S
MARINETTE      MOCLDY   N/A N/A N/A N6        30.04S
OCONTO         CLOUDY    58  58 100 N6        30.03S
$$

WIZ017-030-035>037-045-291200-
CENTRAL WISCONSIN

CITY           SKY/WX    TMP DP  RH WIND       PRES   REMARKS
MEDFORD        PTCLDY    53  53 100 N3        30.05F
WAUSAU         PTCLDY    57  52  83 N3        30.03S
MOSINEE        PTCLDY    59  55  88 N7        30.05S
MARSHFIELD     PTCLDY    59  55  87 NE7       30.03S
WISC RAPIDS    MOCLDY    61  52  72 NE8       30.03S
STEVENS POINT  CLEAR     55  53  92 NE6       30.04R
WAUPACA        MOCLDY    61  58  91 N3        30.02S
SHAWANO        CLOUDY    61  55  81 NE9       30.04S
CLINTONVILLE   CLOUDY    59  52  77 NE6       30.02F
WAUTOMA        CLOUDY    59  57  93 NE6       30.02R
$$

WIZ038-039-048-051-291200-
FOX VALLEY

CITY           SKY/WX    TMP DP  RH WIND       PRES   REMARKS
NWS GREEN BAY  CLOUDY    60  58  92 N10       30.02R
APPLETON       CLOUDY    61  55  82 MISG      30.00S
OSHKOSH        CLOUDY    64  61  90 NE12      30.00S
FOND DU LAC    CLOUDY    64  61  90 NE8       30.00S
$$

WIZ022-050-052-291200-
EAST CENTRAL WISCONSIN

CITY           SKY/WX    TMP DP  RH WIND       PRES   REMARKS
EPHRAIM        PTSUNNY   62  59  91 N3        30.02S
WASHINGTON ISL NOT AVBL
STURGEON BAY   CLOUDY    64  62  93 CALM      30.04R
MANITOWOC      CLOUDY    65  63  93 NE3       30.00S
SHEBOYGAN      CLOUDY    64  62  93 N9        29.99R
$$

LMZ563-521-522-541>543-291200-
LAKESHORE

STATION/POSITION TIME  TEMP    WIND        PRES    VSBY  WAVE
                       AIR SEA DIR/SP/G                  HT/PER
                 (UTC) (F)     (DEG/KT/KT) (MB)    (MI)  (FT/S)
SHEBOYGAN LKSHOR 1100   61     350/ 13/ 13 1015.7R
KEWAUNEE LKSHORE 1000   64      70/ 10/ 12 1015.7R
ALGOMA MARINA    1043           90/ 11/ 13   N/A
NORTHPORT PIER   1000   65      40/  5/  8 1016.9S
N MID LAKE BUOY  1050   68 69  100/ 14/ 16 1015.9S         2/ 4
SISTER BAY LKSHO 1006   64      30/  2/  3   N/A
CHAMBERS ISLAND  1000   66      20/ 10/ 15 1016.9S
MENOMINEE LKSHOR 1000   62     360/ 12/ 15 1016.0R
$$




USA.gov is the U.S. government's official web portal to all federal, state and local government web resources and services.